Time,TemperatureF,DewpointF,PressureIn,WindDirection,WindDirectionDegrees,WindSpeedMPH,WindSpeedGustMPH,Humidity,HourlyPrecipIn,Conditions,Clouds,dailyrainin,SoftwareType,DateUTC
2013-11-18 00:01:00,27.0,12.0,-100.00,NNW,330,14.0,19.0,51,-99.99,,,-99.99,,2013-11-18 00:01:00,
2013-11-18 00:11:00,27.0,12.0,-100.00,NNW,330,14.0,19.0,51,-99.99,,,-99.99,,2013-11-18 00:11:00,
2013-11-18 00:21:00,27.0,11.0,-100.00,North,0,8.0,13.0,51,-99.99,,,-99.99,,2013-11-18 00:21:00,
2013-11-18 00:32:00,27.0,11.0,-100.00,North,0,8.0,13.0,51,-99.99,,,-99.99,,2013-11-18 00:32:00,
2013-11-18 00:42:00,27.0,11.0,-100.00,North,0,8.0,13.0,51,-99.99,,,-99.99,,2013-11-18 00:42:00,
2013-11-18 00:52:00,27.0,11.0,-100.00,North,0,10.0,16.0,52,-99.99,,,-99.99,,2013-11-18 00:52:00,
2013-11-18 01:01:00,27.0,11.0,-100.00,North,0,10.0,16.0,52,-99.99,,,-99.99,,2013-11-18 01:01:00,
2013-11-18 01:11:00,27.0,11.0,-100.00,North,0,10.0,16.0,52,-99.99,,,-99.99,,2013-11-18 01:11:00,
2013-11-18 01:22:00,26.0,11.0,-100.00,NW,320,4.0,13.0,51,-99.99,,,-99.99,,2013-11-18 01:22:00,
2013-11-18 01:32:00,26.0,11.0,-100.00,NW,320,4.0,13.0,51,-99.99,,,-99.99,,2013-11-18 01:32:00,
2013-11-18 01:42:00,26.0,11.0,-100.00,NW,320,4.0,13.0,51,-99.99,,,-99.99,,2013-11-18 01:42:00,
2013-11-18 01:52:00,25.0,11.0,-100.00,NW,315,4.0,6.0,53,-99.99,,,-99.99,,2013-11-18 01:52:00,
2013-11-18 02:01:00,25.0,11.0,-100.00,NW,315,4.0,6.0,53,-99.99,,,-99.99,,2013-11-18 02:01:00,
2013-11-18 02:11:00,25.0,11.0,-100.00,NW,315,4.0,6.0,53,-99.99,,,-99.99,,2013-11-18 02:11:00,
2013-11-18 02:21:00,23.0,10.0,-100.00,South,190,3.0,6.0,55,-99.99,,,-99.99,,2013-11-18 02:21:00,
2013-11-18 02:32:00,23.0,10.0,-100.00,South,190,3.0,6.0,55,-99.99,,,-99.99,,2013-11-18 02:32:00,
2013-11-18 02:42:00,23.0,10.0,-100.00,South,190,3.0,6.0,55,-99.99,,,-99.99,,2013-11-18 02:42:00,
2013-11-18 02:52:00,24.0,11.0,-100.00,West,260,0.0,4.0,56,-99.99,,,-99.99,,2013-11-18 02:52:00,
2013-11-18 03:02:00,24.0,11.0,-100.00,West,260,0.0,4.0,56,-99.99,,,-99.99,,2013-11-18 03:02:00,
2013-11-18 03:11:00,24.0,11.0,-100.00,West,260,0.0,4.0,56,-99.99,,,-99.99,,2013-11-18 03:11:00,
2013-11-18 03:22:00,23.0,11.0,-100.00,NW,315,0.0,4.0,58,-99.99,,,-99.99,,2013-11-18 03:22:00,
2013-11-18 03:34:00,23.0,11.0,-100.00,NW,315,0.0,4.0,58,-99.99,,,-99.99,,2013-11-18 03:34:00,
2013-11-18 03:44:00,23.0,11.0,-100.00,NW,315,0.0,4.0,58,-99.99,,,-99.99,,2013-11-18 03:44:00,
2013-11-18 03:54:00,23.0,11.0,-100.00,NNE,15,3.0,5.0,59,-99.99,,,-99.99,,2013-11-18 03:54:00,
2013-11-18 04:03:00,23.0,11.0,-100.00,NNE,15,3.0,5.0,59,-99.99,,,-99.99,,2013-11-18 04:03:00,
2013-11-18 04:12:00,23.0,11.0,-100.00,NNE,15,3.0,5.0,59,-99.99,,,-99.99,,2013-11-18 04:12:00,
2013-11-18 04:23:00,23.0,11.0,-100.00,NW,320,8.0,11.0,59,-99.99,,,-99.99,,2013-11-18 04:23:00,
2013-11-18 04:33:00,23.0,11.0,-100.00,NW,320,8.0,11.0,59,-99.99,,,-99.99,,2013-11-18 04:33:00,
2013-11-18 04:42:00,23.0,11.0,-100.00,NW,320,8.0,11.0,59,-99.99,,,-99.99,,2013-11-18 04:42:00,
2013-11-18 04:52:00,23.0,11.0,-100.00,NNE,25,5.0,9.0,60,-99.99,,,-99.99,,2013-11-18 04:52:00,
2013-11-18 05:02:00,23.0,11.0,-100.00,NNE,25,5.0,9.0,60,-99.99,,,-99.99,,2013-11-18 05:02:00,
2013-11-18 05:12:00,23.0,11.0,-100.00,NNE,25,5.0,9.0,60,-99.99,,,-99.99,,2013-11-18 05:12:00,
2013-11-18 05:22:00,24.0,12.0,-100.00,NNE,20,3.0,7.0,59,-99.99,,,-99.99,,2013-11-18 05:22:00,
2013-11-18 05:33:00,24.0,12.0,-100.00,NNE,20,3.0,7.0,59,-99.99,,,-99.99,,2013-11-18 05:33:00,
2013-11-18 05:43:00,24.0,12.0,-100.00,NNE,20,3.0,7.0,59,-99.99,,,-99.99,,2013-11-18 05:43:00,
2013-11-18 05:53:00,23.0,11.0,-100.00,NNE,20,3.0,6.0,61,-99.99,,,-99.99,,2013-11-18 05:53:00,
2013-11-18 06:02:00,23.0,11.0,-100.00,NNE,20,3.0,6.0,61,-99.99,,,-99.99,,2013-11-18 06:02:00,
2013-11-18 06:12:00,23.0,11.0,-100.00,NNE,20,3.0,6.0,61,-99.99,,,-99.99,,2013-11-18 06:12:00,
2013-11-18 06:22:00,23.0,12.0,-100.00,NNW,345,2.0,4.0,61,-99.99,,,-99.99,,2013-11-18 06:22:00,
2013-11-18 06:32:00,23.0,12.0,-100.00,NNW,345,2.0,4.0,61,-99.99,,,-99.99,,2013-11-18 06:32:00,
2013-11-18 06:42:00,23.0,12.0,-100.00,NNW,345,2.0,4.0,61,-99.99,,,-99.99,,2013-11-18 06:42:00,
2013-11-18 06:52:00,23.0,12.0,-100.00,WSW,250,3.0,6.0,62,-99.99,,,-99.99,,2013-11-18 06:52:00,
2013-11-18 07:01:00,23.0,12.0,-100.00,WSW,250,3.0,6.0,62,-99.99,,,-99.99,,2013-11-18 07:01:00,
2013-11-18 07:11:00,23.0,12.0,-100.00,WSW,250,3.0,6.0,62,-99.99,,,-99.99,,2013-11-18 07:11:00,
2013-11-18 07:21:00,23.0,12.0,-100.00,North,0,4.0,7.0,63,-99.99,,,-99.99,,2013-11-18 07:21:00,
2013-11-18 07:32:00,23.0,12.0,-100.00,North,0,4.0,7.0,63,-99.99,,,-99.99,,2013-11-18 07:32:00,
2013-11-18 07:42:00,23.0,12.0,-100.00,North,0,4.0,7.0,63,-99.99,,,-99.99,,2013-11-18 07:42:00,
2013-11-18 07:52:00,24.0,13.0,-100.00,North,0,11.0,18.0,62,-99.99,,,-99.99,,2013-11-18 07:52:00,
2013-11-18 08:01:00,24.0,13.0,-100.00,North,0,11.0,18.0,62,-99.99,,,-99.99,,2013-11-18 08:01:00,
2013-11-18 08:11:00,24.0,13.0,-100.00,North,0,11.0,18.0,62,-99.99,,,-99.99,,2013-11-18 08:11:00,
2013-11-18 08:21:00,23.0,12.0,-100.00,North,350,8.0,16.0,63,-99.99,,,-99.99,,2013-11-18 08:21:00,
2013-11-18 08:32:00,23.0,12.0,-100.00,North,350,8.0,16.0,63,-99.99,,,-99.99,,2013-11-18 08:32:00,
2013-11-18 08:42:00,23.0,12.0,-100.00,North,350,8.0,16.0,63,-99.99,,,-99.99,,2013-11-18 08:42:00,
2013-11-18 08:52:00,22.0,12.0,-100.00,WNW,290,2.0,11.0,64,-99.99,,,-99.99,,2013-11-18 08:52:00,
2013-11-18 09:02:00,22.0,12.0,-100.00,WNW,290,2.0,11.0,64,-99.99,,,-99.99,,2013-11-18 09:02:00,
2013-11-18 09:12:00,22.0,12.0,-100.00,WNW,290,2.0,11.0,64,-99.99,,,-99.99,,2013-11-18 09:12:00,
2013-11-18 09:22:00,23.0,12.0,-100.00,SE,135,3.0,5.0,63,-99.99,,,-99.99,,2013-11-18 09:22:00,
2013-11-18 09:33:00,23.0,12.0,-100.00,SE,135,3.0,5.0,63,-99.99,,,-99.99,,2013-11-18 09:33:00,
2013-11-18 09:43:00,23.0,12.0,-100.00,SE,135,3.0,5.0,63,-99.99,,,-99.99,,2013-11-18 09:43:00,
2013-11-18 09:53:00,24.0,12.0,-100.00,NE,45,1.0,6.0,61,-99.99,,,-99.99,,2013-11-18 09:53:00,
2013-11-18 10:03:00,24.0,12.0,-100.00,NE,45,1.0,6.0,61,-99.99,,,-99.99,,2013-11-18 10:03:00,
2013-11-18 10:13:00,24.0,12.0,-100.00,NE,45,1.0,6.0,61,-99.99,,,-99.99,,2013-11-18 10:13:00,
2013-11-18 10:23:00,21.0,11.0,-100.00,SSE,160,2.0,5.0,65,-99.99,,,-99.99,,2013-11-18 10:23:00,
2013-11-18 10:33:00,21.0,11.0,-100.00,SSE,160,2.0,5.0,65,-99.99,,,-99.99,,2013-11-18 10:33:00,
2013-11-18 10:43:00,21.0,11.0,-100.00,SSE,160,2.0,5.0,65,-99.99,,,-99.99,,2013-11-18 10:43:00,
2013-11-18 10:53:00,22.0,12.0,-100.00,South,185,2.0,4.0,65,-99.99,,,-99.99,,2013-11-18 10:53:00,
2013-11-18 11:02:00,22.0,12.0,-100.00,South,185,2.0,4.0,65,-99.99,,,-99.99,,2013-11-18 11:02:00,
2013-11-18 11:12:00,22.0,12.0,-100.00,South,185,2.0,4.0,65,-99.99,,,-99.99,,2013-11-18 11:12:00,
2013-11-18 11:22:00,23.0,14.0,-100.00,North,0,3.0,7.0,67,-99.99,,,-99.99,,2013-11-18 11:22:00,
2013-11-18 11:32:00,23.0,14.0,-100.00,North,0,3.0,7.0,67,-99.99,,,-99.99,,2013-11-18 11:32:00,
2013-11-18 11:42:00,23.0,14.0,-100.00,North,0,3.0,7.0,67,-99.99,,,-99.99,,2013-11-18 11:42:00,
2013-11-18 11:52:00,23.0,14.0,-100.00,South,185,1.0,2.0,69,-99.99,,,-99.99,,2013-11-18 11:52:00,
2013-11-18 12:02:00,23.0,14.0,-100.00,South,185,1.0,2.0,69,-99.99,,,-99.99,,2013-11-18 12:02:00,
2013-11-18 12:12:00,23.0,14.0,-100.00,South,185,1.0,2.0,69,-99.99,,,-99.99,,2013-11-18 12:12:00,
2013-11-18 12:22:00,23.0,15.0,-100.00,SSE,160,1.0,7.0,72,-99.99,,,-99.99,,2013-11-18 12:22:00,
2013-11-18 12:32:00,23.0,15.0,-100.00,SSE,160,1.0,7.0,72,-99.99,,,-99.99,,2013-11-18 12:32:00,
2013-11-18 12:42:00,23.0,15.0,-100.00,SSE,160,1.0,7.0,72,-99.99,,,-99.99,,2013-11-18 12:42:00,
2013-11-18 12:52:00,23.0,15.0,-100.00,NW,325,1.0,3.0,70,-99.99,,,-99.99,,2013-11-18 12:52:00,
2013-11-18 13:01:00,23.0,15.0,-100.00,NW,325,1.0,3.0,70,-99.99,,,-99.99,,2013-11-18 13:01:00,
2013-11-18 13:11:00,23.0,15.0,-100.00,NW,325,1.0,3.0,70,-99.99,,,-99.99,,2013-11-18 13:11:00,
2013-11-18 13:21:00,23.0,14.0,-100.00,ENE,75,0.0,1.0,69,-99.99,,,-99.99,,2013-11-18 13:21:00,
2013-11-18 13:32:00,23.0,14.0,-100.00,ENE,75,0.0,1.0,69,-99.99,,,-99.99,,2013-11-18 13:32:00,
2013-11-18 13:42:00,23.0,14.0,-100.00,ENE,75,0.0,1.0,69,-99.99,,,-99.99,,2013-11-18 13:42:00,
2013-11-18 13:52:00,22.0,14.0,-100.00,ESE,120,1.0,3.0,69,-99.99,,,-99.99,,2013-11-18 13:52:00,
2013-11-18 14:02:00,22.0,14.0,-100.00,ESE,120,1.0,3.0,69,-99.99,,,-99.99,,2013-11-18 14:02:00,
2013-11-18 14:11:00,22.0,14.0,-100.00,ESE,120,1.0,3.0,69,-99.99,,,-99.99,,2013-11-18 14:11:00,
2013-11-18 14:22:00,23.0,14.0,-100.00,SSE,160,1.0,2.0,69,-99.99,,,-99.99,,2013-11-18 14:22:00,
2013-11-18 14:32:00,23.0,14.0,-100.00,SSE,160,1.0,2.0,69,-99.99,,,-99.99,,2013-11-18 14:32:00,
2013-11-18 14:42:00,23.0,14.0,-100.00,SSE,160,1.0,2.0,69,-99.99,,,-99.99,,2013-11-18 14:42:00,
2013-11-18 14:52:00,21.0,13.0,-100.00,SSE,155,2.0,4.0,70,-99.99,,,-99.99,,2013-11-18 14:52:00,
2013-11-18 15:01:00,21.0,13.0,-100.00,SSE,155,2.0,4.0,70,-99.99,,,-99.99,,2013-11-18 15:01:00,
2013-11-18 15:11:00,21.0,13.0,-100.00,SSE,155,2.0,4.0,70,-99.99,,,-99.99,,2013-11-18 15:11:00,
2013-11-18 15:22:00,20.0,12.0,-100.00,South,175,3.0,4.0,71,-99.99,,,-99.99,,2013-11-18 15:22:00,
2013-11-18 15:33:00,20.0,12.0,-100.00,South,175,3.0,4.0,71,-99.99,,,-99.99,,2013-11-18 15:33:00,
2013-11-18 15:43:00,20.0,12.0,-100.00,South,175,3.0,4.0,71,-99.99,,,-99.99,,2013-11-18 15:43:00,
2013-11-18 15:53:00,20.0,13.0,-100.00,South,170,1.0,3.0,72,-99.99,,,-99.99,,2013-11-18 15:53:00,
2013-11-18 16:03:00,20.0,13.0,-100.00,South,170,1.0,3.0,72,-99.99,,,-99.99,,2013-11-18 16:03:00,
2013-11-18 16:12:00,20.0,13.0,-100.00,South,170,1.0,3.0,72,-99.99,,,-99.99,,2013-11-18 16:12:00,
2013-11-18 16:23:00,21.0,13.0,-100.00,SW,235,1.0,2.0,71,-99.99,,,-99.99,,2013-11-18 16:23:00,
2013-11-18 16:33:00,21.0,13.0,-100.00,SW,235,1.0,2.0,71,-99.99,,,-99.99,,2013-11-18 16:33:00,
2013-11-18 16:43:00,21.0,13.0,-100.00,SW,235,1.0,2.0,71,-99.99,,,-99.99,,2013-11-18 16:43:00,
2013-11-18 16:52:00,22.0,13.0,-100.00,SSE,150,1.0,3.0,69,-99.99,,,-99.99,,2013-11-18 16:52:00,
2013-11-18 17:02:00,22.0,13.0,-100.00,SSE,150,1.0,3.0,69,-99.99,,,-99.99,,2013-11-18 17:02:00,
2013-11-18 17:12:00,22.0,13.0,-100.00,SSE,150,1.0,3.0,69,-99.99,,,-99.99,,2013-11-18 17:12:00,
2013-11-18 17:22:00,20.0,12.0,-100.00,SSE,155,2.0,4.0,70,-99.99,,,-99.99,,2013-11-18 17:22:00,
2013-11-18 17:32:00,20.0,12.0,-100.00,SSE,155,2.0,4.0,70,-99.99,,,-99.99,,2013-11-18 17:32:00,
2013-11-18 17:43:00,20.0,12.0,-100.00,SSE,155,2.0,4.0,70,-99.99,,,-99.99,,2013-11-18 17:43:00,
2013-11-18 17:52:00,21.0,11.0,-100.00,ENE,70,3.0,4.0,65,-99.99,,,-99.99,,2013-11-18 17:52:00,
2013-11-18 18:02:00,21.0,11.0,-100.00,ENE,70,3.0,4.0,65,-99.99,,,-99.99,,2013-11-18 18:02:00,
2013-11-18 18:12:00,21.0,11.0,-100.00,ENE,70,3.0,4.0,65,-99.99,,,-99.99,,2013-11-18 18:12:00,
2013-11-18 18:22:00,20.0,10.0,-100.00,WNW,300,0.0,4.0,65,-99.99,,,-99.99,,2013-11-18 18:22:00,
2013-11-18 18:32:00,20.0,10.0,-100.00,WNW,300,0.0,4.0,65,-99.99,,,-99.99,,2013-11-18 18:32:00,
2013-11-18 18:42:00,20.0,10.0,-100.00,WNW,300,0.0,4.0,65,-99.99,,,-99.99,,2013-11-18 18:42:00,
2013-11-18 18:52:00,20.0,10.0,-100.00,SE,130,2.0,3.0,66,-99.99,,,-99.99,,2013-11-18 18:52:00,
2013-11-18 19:01:00,20.0,10.0,-100.00,SE,130,2.0,3.0,66,-99.99,,,-99.99,,2013-11-18 19:01:00,
2013-11-18 19:11:00,20.0,10.0,-100.00,SE,130,2.0,3.0,66,-99.99,,,-99.99,,2013-11-18 19:11:00,
2013-11-18 19:21:00,19.0,10.0,-100.00,South,170,2.0,4.0,67,-99.99,,,-99.99,,2013-11-18 19:21:00,
2013-11-18 19:32:00,19.0,10.0,-100.00,South,170,2.0,4.0,67,-99.99,,,-99.99,,2013-11-18 19:32:00,
2013-11-18 19:42:00,19.0,10.0,-100.00,South,170,2.0,4.0,67,-99.99,,,-99.99,,2013-11-18 19:42:00,
2013-11-18 20:01:00,20.0,11.0,-100.00,SSE,150,2.0,3.0,68,-99.99,,,-99.99,,2013-11-18 20:01:00,
2013-11-18 20:21:00,23.0,13.0,-100.00,SSE,165,1.0,4.0,66,-99.99,,,-99.99,,2013-11-18 20:21:00,
2013-11-18 20:32:00,23.0,13.0,-100.00,SSE,165,1.0,4.0,66,-99.99,,,-99.99,,2013-11-18 20:32:00,
2013-11-18 20:42:00,23.0,13.0,-100.00,SSE,165,1.0,4.0,66,-99.99,,,-99.99,,2013-11-18 20:42:00,
2013-11-18 20:52:00,25.0,14.0,-100.00,SSW,205,2.0,6.0,61,-99.99,,,-99.99,,2013-11-18 20:52:00,
2013-11-18 21:02:00,25.0,14.0,-100.00,SSW,205,2.0,6.0,61,-99.99,,,-99.99,,2013-11-18 21:02:00,
2013-11-18 21:11:00,25.0,14.0,-100.00,SSW,205,2.0,6.0,61,-99.99,,,-99.99,,2013-11-18 21:11:00,
2013-11-18 21:21:00,26.0,15.0,-100.00,SSE,150,6.0,7.0,61,-99.99,,,-99.99,,2013-11-18 21:21:00,
2013-11-18 21:33:00,26.0,15.0,-100.00,SSE,150,6.0,7.0,61,-99.99,,,-99.99,,2013-11-18 21:33:00,
2013-11-18 21:43:00,26.0,15.0,-100.00,SSE,150,6.0,7.0,61,-99.99,,,-99.99,,2013-11-18 21:43:00,
2013-11-18 21:54:00,28.0,15.0,-100.00,South,175,3.0,4.0,59,-99.99,,,-99.99,,2013-11-18 21:54:00,
2013-11-18 22:03:00,28.0,15.0,-100.00,South,175,3.0,4.0,59,-99.99,,,-99.99,,2013-11-18 22:03:00,
2013-11-18 22:13:00,28.0,15.0,-100.00,South,175,3.0,4.0,59,-99.99,,,-99.99,,2013-11-18 22:13:00,
2013-11-18 22:22:00,29.0,16.0,-100.00,South,175,4.0,6.0,57,-99.99,,,-99.99,,2013-11-18 22:22:00,
2013-11-18 22:33:00,29.0,16.0,-100.00,South,175,4.0,6.0,57,-99.99,,,-99.99,,2013-11-18 22:33:00,
2013-11-18 22:43:00,29.0,16.0,-100.00,South,175,4.0,6.0,57,-99.99,,,-99.99,,2013-11-18 22:43:00,
2013-11-18 22:52:00,30.0,16.0,-100.00,North,0,4.0,5.0,55,-99.99,,,-99.99,,2013-11-18 22:52:00,
2013-11-18 23:02:00,30.0,16.0,-100.00,North,0,4.0,5.0,55,-99.99,,,-99.99,,2013-11-18 23:02:00,
2013-11-18 23:12:00,30.0,16.0,-100.00,North,0,4.0,5.0,55,-99.99,,,-99.99,,2013-11-18 23:12:00,
2013-11-18 23:21:00,28.0,15.0,-100.00,NNW,340,7.0,12.0,58,-99.99,,,-99.99,,2013-11-18 23:21:00,
2013-11-18 23:33:00,28.0,15.0,-100.00,NNW,340,7.0,12.0,58,-99.99,,,-99.99,,2013-11-18 23:33:00,
2013-11-18 23:42:00,28.0,15.0,-100.00,NNW,340,7.0,12.0,58,-99.99,,,-99.99,,2013-11-18 23:42:00,
2013-11-18 23:52:00,28.0,15.0,-100.00,NW,310,7.0,12.0,56,-99.99,,,-99.99,,2013-11-18 23:52:00,